Location: Sperry Observatory
(40.6664°N, 74.3236°W)
Time: 17:46:19
(UTC-04:00)

Amateur Radio Satellites - All Passes

Search period start: 02 September 2015 17:16
Search period end: 03 September 2015 17:16
Location: Sperry Observatory, 40.6664°N, 74.3236°W

Satellite Date Start Highest point End Downlink Frequencies (MHz)
Time Altitude Azimuth
KKS-1 02 Sep 17:17:36 17:20:55 20° 294° (WNW) 17:24:07 437.445
AIST 2 02 Sep 17:18:44 17:22:16 24° 313° (NW) 17:25:44 435.215
HORYU 2 02 Sep 17:28:42 17:31:03 14° 270° (W) 17:33:11 437.375
MOZHAYETS 4 02 Sep 17:42:38 17:47:10 67° 285° (WNW) 17:51:41
Cubesat XI-IV 02 Sep 18:00:59 18:06:06 51° 72° (ENE) 18:11:17 437.490
CUBESAT XI-V 02 Sep 18:05:34 18:08:44 18° 91° (E) 18:12:02 437.345
AIST 1 02 Sep 18:06:07 18:07:41 12° 67° (ENE) 18:09:29
O/OREOS (USA 219) 02 Sep 18:35:40 18:39:58 45° 107° (ESE) 18:44:20 437.305
STRAND 1 02 Sep 18:43:28 18:45:02 12° 87° (E) 18:46:56 437.568
CUTE-I 02 Sep 18:45:13 18:50:29 64° 259° (WSW) 18:55:47 437.470
BRITE-PL 02 Sep 18:48:23 18:51:44 22° 66° (ENE) 18:55:24 437.365/2234.400
GOMX 1 02 Sep 19:07:13 19:10:34 21° 65° (ENE) 19:14:13 467.674
DOVE 4 02 Sep 19:12:03 19:14:32 15° 63° (ENE) 19:17:19 437.250
PRISM 02 Sep 19:17:27 19:19:47 15° 91° (E) 19:22:18 437.425
CANX-2 02 Sep 19:25:37 19:27:33 13° 65° (ENE) 19:29:41 2200.000
RS-15 02 Sep 19:28:19 19:37:22 26° 337° (NNW) 19:46:33 29.354- 29.394
Cosmos 2491 02 Sep 19:36:52 19:45:04 44° 73° (ENE) 19:53:23 435.465 / 435.565
AIST 1 02 Sep 19:41:33 19:45:49 58° 265° (W) 19:50:05
CUBESAT XI-V 02 Sep 19:41:59 19:46:25 43° 287° (WNW) 19:50:48 437.345
Cubesat XI-IV 02 Sep 19:42:41 19:46:34 20° 269° (W) 19:50:17 437.490
SEEDS 02 Sep 19:43:06 19:45:20 15° 66° (ENE) 19:47:44 437.485
CINEMA 3 02 Sep 19:43:10 19:45:23 14° 63° (ENE) 19:47:52 145.822/145.860
YUBILEINY 02 Sep 19:45:55 19:51:34 20° 80° (E) 19:57:41 435.215
COMPASS 1 02 Sep 20:01:02 20:03:46 18° 67° (ENE) 20:06:38 437.405
HO-68 02 Sep 20:02:25 20:09:16 52° 68° (ENE) 20:16:12 435.675
AAUSAT CUBESAT 2 02 Sep 20:09:20 20:12:08 18° 68° (ENE) 20:15:03 437.432
O/OREOS (USA 219) 02 Sep 20:16:20 20:19:40 19° 305° (NW) 20:22:55 437.305
STRAND 1 02 Sep 20:19:50 20:24:57 79° 285° (WNW) 20:30:04 437.568
BRITE-PL 02 Sep 20:25:59 20:30:03 36° 265° (W) 20:34:24 437.365/2234.400
GOMX 1 02 Sep 20:44:05 20:48:24 41° 264° (W) 20:53:00 467.674
CUTE 1.7 + AOD 2 02 Sep 20:44:22 20:48:40 86° 79° (ENE) 20:52:58 437.475
ZACube-1 02 Sep 20:47:02 20:49:39 16° 65° (ENE) 20:52:27 437.345
DOVE 4 02 Sep 20:47:06 20:51:43 65° 260° (W) 20:56:39 437.250
FUNcube-1 02 Sep 20:51:14 20:54:02 17° 66° (ENE) 20:57:00 145.935
PRISM 02 Sep 20:51:34 20:55:28 41° 288° (WNW) 20:59:20 437.425
CUBEBUG 2 02 Sep 20:54:24 20:58:28 31° 70° (ENE) 21:02:40 437.445
UWE-3 02 Sep 20:57:18 21:01:04 26° 69° (ENE) 21:04:59 435.000/436.395/437.385
CANX-2 02 Sep 20:58:49 21:03:02 57° 260° (W) 21:07:17 2200.000
HUMSAT D 02 Sep 21:16:01 21:17:22 11° 64° (ENE) 21:18:55 437.325/437.525
SEEDS 02 Sep 21:16:36 21:20:45 50° 261° (W) 21:24:54 437.485
CINEMA 3 02 Sep 21:17:15 21:21:57 72° 259° (W) 21:26:54 145.822/145.860
DX 1 02 Sep 21:33:12 21:33:49 10° 62° (ENE) 21:34:41 434.975-435.025
Oscar 11 02 Sep 21:33:27 21:37:47 70° 76° (ENE) 21:42:07 145.826/435.025
Cosmos 2491 02 Sep 21:33:54 21:41:56 41° 272° (W) 21:49:50 435.465 / 435.565
COMPASS 1 02 Sep 21:35:11 21:39:09 39° 262° (W) 21:43:07 437.405
YUBILEINY 02 Sep 21:38:39 21:47:27 82° 279° (W) 21:56:21 435.215
UKube-1 02 Sep 21:41:35 21:42:59 12° 63° (ENE) 21:44:36 .
AAUSAT CUBESAT 2 02 Sep 21:43:34 21:47:29 37° 263° (W) 21:51:22 437.432
RS-15 02 Sep 21:46:52 21:55:12 22° 12° (NNE) 22:03:57 29.354- 29.394
HO-68 02 Sep 21:51:07 21:57:19 30° 266° (W) 22:03:23 435.675
DELFI C3 02 Sep 21:52:11 21:56:13 73° 76° (ENE) 22:00:16 145.870
AISAT 02 Sep 22:02:07 22:04:26 15° 64° (ENE) 22:06:56 437.250
50 SAT 02 Sep 22:16:49 22:19:45 21° 69° (ENE) 22:22:46 437.505
UNISAT 6 02 Sep 22:19:31 22:21:15 12° 88° (E) 22:23:14 437.425
ZACube-1 02 Sep 22:21:05 22:25:34 55° 261° (W) 22:30:07 437.345
FUNcube-1 02 Sep 22:25:32 22:29:58 51° 261° (W) 22:34:27 145.935
Cosmos 2504 02 Sep 22:27:04 22:33:48 31° 84° (E) 22:41:02 435.465 / 435.565
VELOX 1 02 Sep 22:28:14 22:31:50 26° 68° (ENE) 22:35:31 145.980
CUBEBUG 2 02 Sep 22:31:09 22:35:08 27° 266° (W) 22:39:08 437.445
UWE-3 02 Sep 22:33:19 22:37:28 32° 265° (W) 22:41:39 435.000/436.395/437.385
TIGRISAT 02 Sep 22:45:43 22:49:18 23° 93° (E) 22:52:54 435.000
HUMSAT D 02 Sep 22:48:16 22:52:34 69° 259° (W) 22:56:54 437.325/437.525
M-CUBED/EXP-1 PRIME 02 Sep 22:49:32 22:51:00 12° 93° (E) 22:52:37 437.505
BEESAT 3 02 Sep 22:54:57 22:58:30 29° 49° (NE) 23:02:02 437.485
POLYITAN 1 02 Sep 23:03:15 23:05:03 13° 89° (E) 23:07:05 437.675
ANTELSAT 02 Sep 23:03:18 23:07:31 37° 97° (E) 23:11:39 437.575/2403.000
DUCHIFAT 1 02 Sep 23:03:42 23:05:09 12° 89° (E) 23:06:51 145.980
POPSAT HIP 1 02 Sep 23:04:53 23:06:46 13° 89° (E) 23:08:51 437.405
DX 1 02 Sep 23:05:10 23:09:30 78° 259° (W) 23:13:52 434.975-435.025
BEESAT 2 02 Sep 23:10:15 23:13:54 31° 50° (NE) 23:17:32 435.950
UKube-1 02 Sep 23:14:19 23:18:36 68° 258° (WSW) 23:22:56 .
SPROUT 02 Sep 23:18:29 23:21:09 17° 66° (ENE) 23:23:58 437.525
DANDE 02 Sep 23:20:04 23:20:38 10° 80° (E) 23:21:30 436.750
NANOSAT C BR1 02 Sep 23:20:43 23:23:46 19° 92° (E) 23:26:56 145.865
QB50P2 02 Sep 23:21:22 23:24:34 21° 93° (E) 23:27:53 145.880/145.840
CUBEBUG 1 02 Sep 23:29:53 23:34:11 72° 76° (ENE) 23:38:32 437.445
ESTCUBE 1 02 Sep 23:31:00 23:35:29 89° 255° (WSW) 23:40:00 437.505/2401.250
QB50P1 02 Sep 23:34:51 23:38:34 28° 95° (E) 23:42:18 145.935-145.965
AISAT 02 Sep 23:36:15 23:40:34 55° 260° (W) 23:44:56 437.250
YUBILEINY 02 Sep 23:40:31 23:46:01 17° 302° (WNW) 23:51:03 435.215
SO-50 02 Sep 23:48:49 23:51:57 18° 110° (ESE) 23:55:20 436.795
50 SAT 02 Sep 23:50:38 23:54:07 29° 264° (W) 23:57:35 437.505
UNISAT 6 02 Sep 23:54:02 23:58:34 61° 286° (WNW) 00:02:56 437.425
RS-15 03 Sep 00:00:29 00:11:40 47° 43° (NE) 00:23:23 29.354- 29.394
AIST 2 03 Sep 00:01:46 00:05:10 24° 47° (NE) 00:08:35 435.215
VELOX 1 03 Sep 00:04:26 00:08:18 29° 265° (W) 00:12:07 145.980
TISAT 1 03 Sep 00:12:17 00:16:06 35° 71° (ENE) 00:20:00 437.305
CUSAT 1 03 Sep 00:14:03 00:18:03 86° 102° (ESE) 00:23:31 437.405
AUBIESAT-1 03 Sep 00:14:47 00:18:38 66° 291° (WNW) 00:22:10 437.475
Cosmos 2504 03 Sep 00:17:31 00:25:33 57° 283° (WNW) 00:34:00 435.465 / 435.565
TIGRISAT 03 Sep 00:22:02 00:26:07 32° 290° (WNW) 00:30:03 435.000
M-CUBED/EXP-1 PRIME 03 Sep 00:22:28 00:26:14 43° 293° (WNW) 00:29:41 437.505
BEESAT 03 Sep 00:30:34 00:31:53 11° 62° (ENE) 00:33:29 436.000
BEESAT 3 03 Sep 00:32:59 00:36:20 25° 246° (WSW) 00:39:34 437.485
BUGSAT 1 03 Sep 00:34:42 00:38:59 82° 101° (E) 00:43:15 437.445
PCSat 03 Sep 00:37:05 00:40:52 20° 107° (ESE) 00:44:52 145.827
POLYITAN 1 03 Sep 00:37:08 00:41:22 55° 286° (WNW) 00:45:33 437.675
DUCHIFAT 1 03 Sep 00:37:10 00:41:24 58° 286° (WNW) 00:45:35 145.980
POPSAT HIP 1 03 Sep 00:38:48 00:43:01 53° 287° (WNW) 00:47:12 437.405
ANTELSAT 03 Sep 00:40:37 00:44:04 21° 293° (WNW) 00:47:20 437.575/2403.000
BEESAT 2 03 Sep 00:48:32 00:51:48 23° 247° (WSW) 00:54:58 435.950
SPROUT 03 Sep 00:52:48 00:56:55 44° 262° (W) 01:01:03 437.525
SWISSCUBE 03 Sep 00:54:25 00:57:56 21° 66° (ENE) 01:01:34 437.505
NANOSAT C BR1 03 Sep 00:55:47 00:59:44 35° 289° (WNW) 01:03:36 145.865
QB50P2 03 Sep 00:56:40 01:00:33 33° 289° (WNW) 01:04:22 145.880/145.840
DANDE 03 Sep 00:59:14 01:02:46 49° 286° (WNW) 01:07:30 436.750
QB50P1 03 Sep 01:10:47 01:14:19 25° 291° (WNW) 01:17:46 145.935-145.965
SO-50 03 Sep 01:27:23 01:32:06 55° 307° (NW) 01:36:58 436.795
ITUPSAT 1 03 Sep 01:32:55 01:37:27 45° 71° (ENE) 01:42:01 437.325
Oscar 19 03 Sep 01:37:49 01:42:03 26° 93° (E) 01:46:22 437.125/150
AIST 2 03 Sep 01:40:00 01:43:49 34° 245° (WSW) 01:47:32 435.215
TISAT 1 03 Sep 01:48:57 01:52:01 19° 268° (W) 01:54:58 437.305
BEESAT 03 Sep 02:04:20 02:09:07 84° 257° (WSW) 02:13:55 436.000
RS-15 03 Sep 02:13:05 02:24:40 59° 246° (WSW) 02:36:29 29.354- 29.394
STARS 03 Sep 02:16:06 02:17:53 13° 63° (ENE) 02:19:53 437.465
Cosmos 2504 03 Sep 02:18:06 02:20:13 11° 307° (NW) 02:21:40 435.465 / 435.565
PCSat 03 Sep 02:18:37 02:23:55 55° 303° (WNW) 02:29:16 145.827
GONETS M04 03 Sep 02:26:49 02:35:00 50° 90° (E) 02:43:21
SWISSCUBE 03 Sep 02:31:03 02:35:33 41° 262° (W) 02:40:03 437.505
Gurwin Techsat 1B 03 Sep 02:37:15 02:41:48 29° 95° (E) 02:46:26 435.225
VERMONT LUNAR 03 Sep 02:37:54 02:40:24 24° 155° (SSE) 02:42:55 437.305
KKS-1 03 Sep 02:38:09 02:42:11 35° 70° (ENE) 02:46:17 437.445
ITAMSAT 1 03 Sep 02:41:47 02:45:59 25° 94° (E) 02:50:18 435.822/435.867
O/OREOS (USA 219) 03 Sep 03:09:39 03:10:03 10° 48° (NE) 03:10:42 437.305
MOZHAYETS 4 03 Sep 03:10:18 03:11:48 12° 63° (ENE) 03:13:34
ITUPSAT 1 03 Sep 03:12:14 03:15:37 18° 268° (W) 03:18:50 437.325
SO-50 03 Sep 03:12:19 03:13:50 11° 328° (NNW) 03:15:09 436.795
AO-7 03 Sep 03:15:39 03:19:01 13° 85° (E) 03:23:03 29.400- 29.500
Oscar 19 03 Sep 03:16:43 03:21:32 38° 290° (WNW) 03:26:16 437.125/150
Cosmos 2499 03 Sep 03:35:40 03:43:10 38° 86° (E) 03:51:09 435.465 / 435.565
HORYU 2 03 Sep 03:43:53 03:44:44 11° 88° (E) 03:45:53 437.375
JAS-2 03 Sep 03:47:42 03:54:33 63° 99° (E) 04:00:33 435.910
STARS 03 Sep 03:49:26 03:53:49 66° 258° (WSW) 03:58:15 437.465
PHONESAT 2.4 03 Sep 04:06:57 04:08:47 14° 148° (SSE) 04:10:42 2401.200-2431.200
PCSat 03 Sep 04:07:12 04:08:41 11° 325° (NW) 04:09:55 145.827
VERMONT LUNAR 03 Sep 04:13:36 04:16:35 75° 171° (S) 04:19:34 437.305
KKS-1 03 Sep 04:15:28 04:18:56 21° 267° (W) 04:22:17 437.445
Gurwin Techsat 1B 03 Sep 04:17:02 04:21:50 35° 291° (WNW) 04:26:35 435.225
ITAMSAT 1 03 Sep 04:20:49 04:25:37 39° 290° (WNW) 04:30:23 435.822/435.867
GONETS M04 03 Sep 04:24:21 04:32:11 35° 290° (WNW) 04:39:56
RS-15 03 Sep 04:32:08 04:35:09 11° 263° (W) 04:36:46 29.354- 29.394
MOZHAYETS 4 03 Sep 04:43:52 04:48:29 75° 258° (WSW) 04:53:07
O/OREOS (USA 219) 03 Sep 04:45:43 04:50:21 83° 68° (ENE) 04:54:56 437.305
AO-7 03 Sep 05:05:04 05:13:23 76° 106° (ESE) 05:21:40 29.400- 29.500
CUBESAT XI-V 03 Sep 05:09:10 05:12:11 18° 66° (ENE) 05:15:20 437.345
HORYU 2 03 Sep 05:17:30 05:21:56 68° 285° (WNW) 05:26:21 437.375
Cosmos 2499 03 Sep 05:27:57 05:36:10 49° 286° (WNW) 05:44:41 435.465 / 435.565
JAS-2 03 Sep 05:33:41 05:39:00 24° 300° (WNW) 05:43:43 435.910
PHONESAT 2.4 03 Sep 05:42:55 05:46:14 50° 163° (SSE) 05:49:33 2401.200-2431.200
VERMONT LUNAR 03 Sep 05:50:00 05:52:59 81° 188° (S) 05:55:57 437.305
STRAND 1 03 Sep 05:58:24 06:01:42 18° 64° (ENE) 06:05:11 437.568
PRISM 03 Sep 06:08:31 06:09:51 12° 64° (ENE) 06:11:23 437.425
Cubesat XI-IV 03 Sep 06:19:18 06:23:10 21° 92° (E) 06:27:12 437.490
CUBESAT XI-V 03 Sep 06:44:53 06:49:18 46° 262° (W) 06:53:44 437.345
AO-7 03 Sep 06:58:58 07:05:29 26° 304° (NW) 07:11:46 29.400- 29.500
CUTE-I 03 Sep 07:02:34 07:07:45 52° 99° (E) 07:12:58 437.470
ISS 03 Sep 07:20:23 07:22:42 18° 133° (SE) 07:25:05 145.825
PHONESAT 2.4 03 Sep 07:20:37 07:24:03 90° 180° (S) 07:27:27 2401.200-2431.200
VERMONT LUNAR 03 Sep 07:26:35 07:29:12 28° 203° (SSW) 07:31:49 437.305
STRAND 1 03 Sep 07:35:31 07:40:31 56° 260° (W) 07:45:33 437.568
PRISM 03 Sep 07:40:47 07:44:49 60° 259° (W) 07:48:52 437.425
YUBILEINY 03 Sep 07:49:26 07:57:57 50° 75° (ENE) 08:06:27 435.215
Cubesat XI-IV 03 Sep 07:58:27 08:03:35 49° 289° (WNW) 08:08:41 437.490
AIST 1 03 Sep 08:10:19 08:14:34 83° 95° (E) 08:18:51
SO-50 03 Sep 08:19:32 08:23:05 20° 41° (NE) 08:26:42 436.795
BRITE-PL 03 Sep 08:29:34 08:35:09 74° 101° (E) 08:40:52 437.365/2234.400
CUTE 1.7 + AOD 2 03 Sep 08:31:16 08:33:37 15° 90° (E) 08:36:08 437.475
Cosmos 2491 03 Sep 08:37:31 08:45:43 50° 90° (E) 08:54:03 435.465 / 435.565
CUTE-I 03 Sep 08:43:34 08:47:30 21° 296° (WNW) 08:51:17 437.470
CANX-2 03 Sep 08:44:53 08:48:17 24° 94° (E) 08:51:44 2200.000
GOMX 1 03 Sep 08:45:19 08:50:46 63° 100° (E) 08:56:12 467.674
DOVE 4 03 Sep 08:46:24 08:51:21 39° 96° (E) 08:56:15 437.250
ISS 03 Sep 08:55:44 08:58:54 48° 329° (NNW) 09:02:05 145.825
PHONESAT 2.4 03 Sep 08:58:31 09:01:53 56° 195° (SSW) 09:05:12 2401.200-2431.200
SEEDS 03 Sep 09:01:30 09:04:59 26° 94° (E) 09:08:30 437.485
CUSAT 1 03 Sep 09:08:17 09:12:33 16° 59° (ENE) 09:17:25 437.405
CINEMA 3 03 Sep 09:12:58 09:17:19 30° 94° (E) 09:21:35 145.822/145.860
HO-68 03 Sep 09:17:40 09:24:44 55° 101° (E) 09:31:46 435.675
UNISAT 6 03 Sep 09:18:30 09:20:26 13° 63° (ENE) 09:22:35 437.425
COMPASS 1 03 Sep 09:18:46 09:22:28 31° 96° (E) 09:26:10 437.405
Oscar 11 03 Sep 09:22:56 09:24:48 13° 89° (E) 09:26:52 145.826/435.025
PCSat 03 Sep 09:24:19 09:28:03 19° 43° (NE) 09:31:55 145.827
AAUSAT CUBESAT 2 03 Sep 09:26:34 09:30:17 32° 96° (E) 09:34:00 437.432
AUBIESAT-1 03 Sep 09:28:04 09:30:57 17° 61° (ENE) 09:33:57 437.475
M-CUBED/EXP-1 PRIME 03 Sep 09:35:10 09:38:51 23° 63° (ENE) 09:42:34 437.505
TIGRISAT 03 Sep 09:44:08 09:47:40 22° 67° (ENE) 09:51:19 435.000
YUBILEINY 03 Sep 09:46:45 09:54:33 35° 274° (W) 10:02:07 435.215
DANDE 03 Sep 09:54:25 10:00:21 24° 65° (ENE) 10:07:01 436.750
POLYITAN 1 03 Sep 09:57:48 09:58:13 10° 63° (ENE) 09:58:54 437.675
SO-50 03 Sep 09:59:14 10:04:09 67° 241° (WSW) 10:08:55 436.795
POPSAT HIP 1 03 Sep 09:59:14 09:59:43 10° 63° (ENE) 10:00:26 437.405
ANTELSAT 03 Sep 10:01:38 10:05:49 34° 70° (ENE) 10:10:05 437.575/2403.000
Cosmos 2504 03 Sep 10:04:41 10:12:50 49° 75° (ENE) 10:20:30 435.465 / 435.565
CUTE 1.7 + AOD 2 03 Sep 10:05:46 10:09:49 44° 287° (WNW) 10:13:48 437.475
BRITE-PL 03 Sep 10:09:34 10:13:08 17° 296° (WNW) 10:16:31 437.365/2234.400
ZACube-1 03 Sep 10:10:30 10:14:22 29° 94° (E) 10:18:13 437.345
NANOSAT C BR1 03 Sep 10:13:44 10:16:04 15° 66° (ENE) 10:18:36 145.865
FUNcube-1 03 Sep 10:14:34 10:18:31 31° 95° (E) 10:22:25 145.935
QB50P2 03 Sep 10:14:40 10:17:15 16° 66° (ENE) 10:19:59 145.880/145.840
CANX-2 03 Sep 10:20:34 10:24:12 27° 290° (WNW) 10:27:44 2200.000
CUBEBUG 2 03 Sep 10:21:51 10:26:31 69° 101° (E) 10:31:01 437.445
UWE-3 03 Sep 10:23:09 10:27:39 54° 99° (E) 10:32:00 435.000/436.395/437.385
DOVE 4 03 Sep 10:24:26 10:28:54 27° 292° (WNW) 10:33:13 437.250
GOMX 1 03 Sep 10:24:36 10:28:25 19° 295° (WNW) 10:32:03 467.674
QB50P1 03 Sep 10:27:39 10:30:49 21° 68° (ENE) 10:34:08 145.935-145.965
HUMSAT D 03 Sep 10:33:29 10:36:29 19° 92° (E) 10:39:33 437.325/437.525
ISS 03 Sep 10:33:57 10:35:55 15° 347° (NNW) 10:37:52 145.825
Cosmos 2491 03 Sep 10:35:04 10:42:55 35° 290° (WNW) 10:50:39 435.465 / 435.565
PHONESAT 2.4 03 Sep 10:37:08 10:39:21 16° 211° (SSW) 10:41:30 2401.200-2431.200
SEEDS 03 Sep 10:37:14 10:40:43 25° 290° (WNW) 10:44:06 437.485
CUSAT 1 03 Sep 10:48:33 10:56:31 71° 78° (ENE) 11:04:42 437.405
CINEMA 3 03 Sep 10:50:05 10:54:26 30° 291° (WNW) 10:58:37 145.822/145.860
UNISAT 6 03 Sep 10:51:58 10:56:39 74° 259° (W) 11:01:24 437.425
DX 1 03 Sep 10:54:42 10:57:41 18° 92° (E) 11:00:49 434.975-435.025
COMPASS 1 03 Sep 10:54:48 10:57:57 21° 292° (WNW) 11:01:01 437.405
Oscar 11 03 Sep 10:57:09 11:01:23 53° 286° (WNW) 11:05:33 145.826/435.025
AUBIESAT-1 03 Sep 11:00:34 11:05:15 60° 255° (WSW) 11:09:51 437.475
AAUSAT CUBESAT 2 03 Sep 11:02:36 11:05:41 20° 292° (WNW) 11:08:41 437.432
UKube-1 03 Sep 11:02:47 11:05:56 20° 93° (E) 11:09:12 .
HO-68 03 Sep 11:06:02 11:12:08 30° 298° (WNW) 11:18:03 435.675
DELFI C3 03 Sep 11:06:16 11:10:13 61° 285° (WNW) 11:14:07 145.870
PCSat 03 Sep 11:06:41 11:12:08 75° 242° (WSW) 11:17:31 145.827
M-CUBED/EXP-1 PRIME 03 Sep 11:08:48 11:13:23 42° 257° (WSW) 11:17:51 437.505
TIGRISAT 03 Sep 11:19:46 11:24:10 39° 263° (W) 11:28:35 435.000
CUBEBUG 1 03 Sep 11:20:31 11:22:43 14° 90° (E) 11:25:09 437.445
BUGSAT 1 03 Sep 11:24:14 11:28:12 52° 73° (ENE) 11:32:15 437.445
ESTCUBE 1 03 Sep 11:24:48 11:28:00 19° 92° (E) 11:31:19 437.505/2401.250
50 SAT 03 Sep 11:25:40 11:29:01 29° 96° (E) 11:32:24 437.505
AISAT 03 Sep 11:27:21 11:31:12 28° 95° (E) 11:35:06 437.250
DUCHIFAT 1 03 Sep 11:28:39 11:32:54 84° 255° (WSW) 11:37:11 145.980
POLYITAN 1 03 Sep 11:29:16 11:33:33 77° 258° (WSW) 11:37:52 437.675
POPSAT HIP 1 03 Sep 11:30:46 11:35:00 76° 258° (WSW) 11:39:19 437.405
DANDE 03 Sep 11:36:20 11:44:13 80° 262° (W) 11:52:46 436.750
ANTELSAT 03 Sep 11:38:45 11:42:39 25° 267° (W) 11:46:28 437.575/2403.000
ZACube-1 03 Sep 11:46:55 11:50:38 25° 291° (WNW) 11:54:12 437.345
NANOSAT C BR1 03 Sep 11:47:25 11:51:32 49° 261° (W) 11:55:41 145.865
QB50P2 03 Sep 11:48:42 11:52:48 45° 261° (W) 11:56:56 145.880/145.840
FUNcube-1 03 Sep 11:51:05 11:54:42 24° 292° (WNW) 11:58:08 145.935
VELOX 1 03 Sep 11:54:21 11:58:44 53° 100° (E) 12:03:07 145.980
Cosmos 2504 03 Sep 11:57:23 12:04:46 34° 275° (W) 12:11:37 435.465 / 435.565
CUBEBUG 2 03 Sep 12:00:27 12:02:37 13° 297° (WNW) 12:04:34 437.445
UWE-3 03 Sep 12:01:00 12:03:43 15° 295° (WNW) 12:06:14 435.000/436.395/437.385
QB50P1 03 Sep 12:02:40 12:06:31 32° 264° (W) 12:10:22 145.935-145.965
HUMSAT D 03 Sep 12:08:29 12:12:20 34° 289° (WNW) 12:16:05 437.325/437.525
ISS 03 Sep 12:11:45 12:13:22 13° 8° (N) 12:15:00 145.825
DX 1 03 Sep 12:30:01 12:34:07 39° 289° (WNW) 12:38:12 434.975-435.025
CUSAT 1 03 Sep 12:32:09 12:38:34 26° 273° (W) 12:44:48 437.405
GONETS M04 03 Sep 12:37:45 12:44:27 25° 64° (ENE) 12:51:30
UKube-1 03 Sep 12:38:12 12:42:12 35° 289° (WNW) 12:46:08 .
SPROUT 03 Sep 12:39:42 12:43:34 31° 96° (E) 12:47:27 437.525
Oscar 19 03 Sep 12:54:12 12:58:52 36° 69° (ENE) 13:03:37 437.125/150
CUBEBUG 1 03 Sep 12:55:07 12:59:26 53° 287° (WNW) 13:03:45 437.445
50 SAT 03 Sep 13:00:33 13:03:23 19° 292° (WNW) 13:06:06 437.505
ESTCUBE 1 03 Sep 13:00:50 13:05:03 39° 288° (WNW) 13:09:12 437.505/2401.250
BUGSAT 1 03 Sep 13:02:20 13:04:04 12° 271° (W) 13:05:35 437.445
AISAT 03 Sep 13:03:53 13:07:43 27° 291° (WNW) 13:11:27 437.250
DANDE 03 Sep 13:21:45 13:26:38 17° 276° (W) 13:31:12 436.750
Cosmos 2499 03 Sep 13:29:44 13:32:52 13° 54° (NE) 13:36:31 435.465 / 435.565
TISAT 1 03 Sep 13:32:03 13:36:20 68° 101° (ESE) 13:40:34 437.305
VELOX 1 03 Sep 13:32:11 13:34:53 16° 295° (WNW) 13:37:26 145.980
ITUPSAT 1 03 Sep 13:35:58 13:37:31 12° 88° (E) 13:39:21 437.325
ISS 03 Sep 13:47:35 13:50:33 32° 27° (NNE) 13:53:31 145.825
JAS-2 03 Sep 13:57:53 14:04:29 33° 64° (ENE) 14:11:15 435.910
Gurwin Techsat 1B 03 Sep 13:57:54 14:02:53 45° 71° (ENE) 14:07:58 435.225
ITAMSAT 1 03 Sep 13:59:20 14:04:03 38° 69° (ENE) 14:08:50 435.822/435.867
BEESAT 03 Sep 14:05:25 14:09:18 25° 94° (E) 14:13:15 436.000
AO-7 03 Sep 14:13:49 14:19:45 23° 54° (NE) 14:25:57 29.400- 29.500
SPROUT 03 Sep 14:16:02 14:19:30 23° 292° (WNW) 14:22:51 437.525
BEESAT 3 03 Sep 14:23:59 14:27:57 58° 119° (ESE) 14:31:59 437.485
RS-15 03 Sep 14:27:16 14:34:56 24° 103° (ESE) 14:43:21 29.354- 29.394
SWISSCUBE 03 Sep 14:31:17 14:35:55 51° 99° (E) 14:40:33 437.505
GONETS M04 03 Sep 14:33:31 14:42:19 73° 266° (W) 14:51:04
Oscar 19 03 Sep 14:33:54 14:38:18 27° 266° (W) 14:42:39 437.125/150
BEESAT 2 03 Sep 14:40:24 14:44:27 66° 119° (ESE) 14:48:32 435.950
HORYU 2 03 Sep 14:42:15 14:43:25 11° 62° (ENE) 14:44:51 437.375
TISAT 1 03 Sep 15:10:05 15:11:35 11° 296° (WNW) 15:12:51 437.305
ITUPSAT 1 03 Sep 15:11:14 15:15:59 70° 286° (WNW) 15:20:44 437.325
Cosmos 2499 03 Sep 15:19:42 15:28:17 66° 78° (ENE) 15:36:14 435.465 / 435.565
ISS 03 Sep 15:24:01 15:26:57 31° 224° (SW) 15:29:51 145.825
AIST 2 03 Sep 15:36:52 15:40:57 51° 118° (ESE) 15:45:05 435.215
Gurwin Techsat 1B 03 Sep 15:38:57 15:43:08 22° 268° (W) 15:47:11 435.225
ITAMSAT 1 03 Sep 15:39:22 15:43:41 26° 266° (W) 15:47:54 435.822/435.867
STARS 03 Sep 15:39:59 15:43:29 23° 94° (E) 15:47:03 437.465
JAS-2 03 Sep 15:41:31 15:49:07 58° 261° (W) 15:56:50 435.910
BEESAT 03 Sep 15:42:55 15:47:12 33° 290° (WNW) 15:51:25 436.000
AO-7 03 Sep 16:03:19 16:11:42 85° 253° (WSW) 16:20:06 29.400- 29.500
BEESAT 3 03 Sep 16:03:38 16:06:17 16° 318° (NW) 16:08:49 437.485
KKS-1 03 Sep 16:05:27 16:09:58 76° 103° (ESE) 16:14:27 437.445
SWISSCUBE 03 Sep 16:10:12 16:13:26 18° 295° (WNW) 16:16:29 437.505
HORYU 2 03 Sep 16:15:00 16:19:29 78° 256° (WSW) 16:24:01 437.375
BEESAT 2 03 Sep 16:20:26 16:22:56 15° 318° (NW) 16:25:20 435.950
GONETS M04 03 Sep 16:34:01 16:37:47 13° 283° (WNW) 16:40:53
RS-15 03 Sep 16:35:06 16:46:04 85° 303° (WNW) 16:57:32 29.354- 29.394
MOZHAYETS 4 03 Sep 16:39:48 16:43:34 26° 94° (E) 16:47:24
CUTE-I 03 Sep 16:48:39 16:50:05 11° 59° (ENE) 16:51:48 437.470
